CAPE
0 0 0 7 627 1296 800 80 0 0 162 462 592 881 842 1031 973 855 766 634 564 529 463 379 313 258 242 215 151 105 95 70 49 35 37 42 105 193 47 0 106 521 62
0 0 0 7 470 1086 842 171 0 40 207 476 827 953 975 915 907 756 507 391 508 522 484 433 345 290 302 331 311 243 209 179 155 110 60 164 134 380 358 91 0 187 561
8 0 0 0 313 931 945 495 164 219 423 811 1137 1040 955 963 825 476 341 358 499 477 409 360 341 310 319 447 535 557 544 519 484 421 440 371 304 710 684 429 152 82 206
135 0 0 8 139 572 907 779 631 632 769 940 930 824 728 596 430 340 241 331 391 340 274 298 359 447 530 564 566 545 555 626 572 514 471 589 911 852 780 379 292 282 354
508 139 0 0 8 154 599 714 666 634 717 751 675 549 300 235 248 202 188 182 205 259 408 558 659 621 531 432 390 426 444 243 13 0 0 1 901 1138 634 367 2 69 277
645 1455 0 0 0 0 198 427 434 455 468 409 270 212 222 237 200 166 150 183 335 605 698 730 733 465 279 42 73 203 94 0 0 0 0 0 0 212 10 0 0 0 0
1020 1479 322 4 0 0 31 31 40 71 113 163 267 271 212 151 112 107 171 484 595 713 622 540 275 0 0 0 0 0 0 0 0 0 0 0 0 0 0 0 0 0 0
1180 785 674 323 27 3 0 0 0 25 48 95 151 127 140 189 168 176 456 511 517 60 0 0 0 0 0 0 0 0 0 0 0 0 0 0 0 0 0 0 0 0 0
359 760 736 580 300 214 276 276 372 382 267 221 280 295 309 318 293 527 602 348 5 0 0 0 0 0 0 0 0 0 0 0 0 0 0 0 0 0 0 0 0 0 0
190 541 254 429 526 429 563 677 456 220 110 250 306 235 367 512 535 267 0 0 0 0 0 0 0 0 0 0 0 0 0 0 0 0 0 0 0 0 0 0 0 0 0
3 78 150 237 296 230 197 285 131 144 314 7 0 0 1 312 233 315 0 0 0 0 0 0 0 0 0 0 6 21 68 3 0 0 6 34 15 3 1 0 0 0 0
1 8 39 45 99 103 131 110 330 445 4 0 0 0 0 88 0 0 0 0 0 0 0 0 26 15 75 81 15 12 49 31 7 0 0 20 5 0 0 0 1 8 5
0 6 42 234 7 27 565 212 435 207 0 0 0 0 145 19 72 14 62 102 54 39 14 5 4 12 0 0 0 0 0 0 0 0 0 0 0 0 0 0 0 0 1
0 0 12 18 0 260 53 0 12 0 0 0 63 51 280 103 377 220 116 81 57 44 13 5 0 0 0 0 0 0 0 0 0 0 0 0 0 0 0 0 0 0 0
0 0 0 22 56 434 127 0 0 0 0 51 283 193 144 210 166 104 82 66 36 37 5 0 0 0 0 0 0 0 0 0 0 0 0 0 0 0 0 0 0 0 2
0 0 0 162 409 512 415 176 79 113 183 51 254 148 105 78 82 13 0 11 20 0 0 0 0 0 0 0 0 0 0 0 0 0 0 0 0 0 1 20 19 22 23
0 0 0 386 593 718 647 606 424 390 286 196 254 81 12 0 0 0 0 0 0 0 0 0 0 0 0 0 0 0 0 0 0 0 0 0 2 22 21 21 11 19 27
60 0 0 15 679 754 682 736 581 348 244 242 157 39 0 0 0 0 0 0 0 0 0 0 0 0 0 0 0 0 0 0 0 0 1 0 14 7 7 2 6 14 12
209 467 74 13 489 758 848 826 679 519 295 141 26 2 0 0 0 0 0 0 0 0 0 0 0 0 0 0 0 0 0 0 0 0 1 10 1 0 2 2 2 1 3
327 1114 1529 1040 445 917 1036 1104 704 362 222 24 0 0 0 0 0 0 0 0 0 0 0 0 0 0 0 0 2 2 0 0 0 1 1 0 0 0 0 0 0 0 6
2033 2135 2540 2707 1915 1556 1307 1167 563 292 41 41 0 0 0 0 0 0 0 0 0 0 0 0 0 1 0 0 5 0 0 0 0 0 0 0 0 0 0 0 0 1 3
2384 2491 2081 1977 2172 1452 817 571 476 348 163 12 0 0 0 0 0 0 0 0 0 0 0 0 2 4 3 3 9 2 1 0 0 0 0 0 1 0 1 0 4 1 6
1126 1055 842 767 757 584 564 481 257 106 43 0 0 0 0 0 0 0 0 0 0 0 2 6 11 8 3 0 4 2 3 0 2 0 0 0 0 1 0 0 3 9 14
357 437 326 196 185 273 343 408 482 376 117 0 0 0 0 0 0 0 0 0 0 0 7 7 11 10 3 2 0 1 2 0 1 1 0 0 0 0 1 0 1 1 2
23 0 0 0 0 0 0 20 36 10 0 0 0 0 0 0 0 0 0 0 0 0 1 5 9 11 4 3 0 4 0 0 0 2 0 0 0 1 0 0 0 3 8
0 0 0 0 0 0 0 0 0 0 0 0 0 0 0 0 0 0 0 0 0 0 6 0 2 7 7 9 13 1 9 9 2 1 1 1 2 0 0 0 0 2 1
CIN
-0 -0 -0 -107 -207 -119 -144 -264 -0 -0 -186 -139 -118 -82 -77 -55 -59 -68 -73 -85 -92 -95 -109 -119 -131 -136 -143 -158 -185 -212 -219 -241 -248 -225 -227 -222 -214 -194 -269 -0 -202 -73 -131
-0 -0 -0 -104 -230 -142 -153 -236 -0 -228 -176 -129 -84 -66 -61 -56 -54 -68 -94 -108 -98 -95 -95 -103 -123 -130 -130 -125 -135 -154 -173 -189 -200 -238 -253 -201 -213 -158 -166 -202 -0 -145 -89
-169 -0 -0 -18 -250 -168 -154 -191 -223 -186 -147 -91 -54 -61 -62 -61 -76 -115 -135 -130 -105 -103 -109 -116 -116 -116 -118 -103 -98 -99 -107 -114 -121 -133 -141 -159 -126 -87 -97 -130 -163 -174 -134
-267 -0 -0 -231 -290 -204 -156 -162 -157 -136 -106 -81 -84 -81 -95 -105 -118 -149 -158 -149 -118 -115 -127 -117 -101 -94 -84 -82 -88 -95 -100 -99 -109 -122 -143 -98 -21 -30 -82 -124 -123 -112 -96
-137 -244 -0 -0 -196 -275 -183 -158 -151 -140 -111 -98 -101 -110 -150 -157 -155 -167 -164 -158 -144 -120 -90 -71 -59 -66 -75 -89 -97 -98 -99 -132 -57 -0 -0 -27 -14 -48 -89 -113 -6 -30 -113
-68 -83 -1 -0 -0 -7 -257 -198 -192 -168 -154 -156 -164 -165 -162 -153 -161 -164 -164 -139 -103 -65 -55 -55 -55 -82 -106 -171 -158 -125 -156 -0 -0 -0 -0 -0 -0 -91 -76 -0 -0 -0 -0
-20 -100 -252 -62 -0 -0 -251 -253 -273 -248 -217 -199 -155 -149 -162 -168 -167 -164 -134 -89 -78 -65 -71 -75 -105 -0 -0 -0 -0 -0 -0 -0 -0 -0 -0 -0 -0 -0 -0 -0 -0 -0 -0
-37 -104 -199 -271 -342 -191 -0 -0 -0 -260 -238 -213 -184 -177 -165 -146 -144 -143 -94 -89 -88 -68 -0 -0 -0 -0 -0 -0 -0 -0 -0 -0 -0 -0 -0 -0 -0 -0 -0 -0 -0 -0 -0
-63 -108 -154 -203 -249 -270 -235 -221 -196 -180 -188 -180 -155 -149 -143 -135 -134 -101 -88 -106 -6 -0 -0 -0 -0 -0 -0 -0 -0 -0 -0 -0 -0 -0 -0 -0 -0 -0 -0 -0 -0 -0 -0
-80 -74 -129 -142 -169 -199 -191 -175 -182 -217 -239 -163 -149 -156 -127 -112 -96 -118 -0 -0 -0 -0 -0 -0 -0 -0 -0 -0 -0 -0 -0 -0 -0 -0 -0 -1 -0 -0 -0 -0 -0 -0 -0
-54 -128 -115 -118 -133 -158 -190 -222 -272 -233 -171 -102 -0 -0 -28 -108 -93 -98 -0 -0 -0 -0 -0 -0 -0 -0 -0 -0 -42 -36 -80 -52 -0 -0 -6 -21 -65 -87 -33 -0 -0 -0 -0
-2 -64 -166 -155 -142 -136 -126 -199 -167 -144 -230 -0 -0 -0 -0 -79 -0 -0 -0 -0 -0 -0 -0 -0 -86 -86 -135 -118 -54 -122 -86 -62 -22 -0 -0 -41 -25 -0 -0 -0 -24 -167 -156
-0 -3 -154 -44 -19 -32 -66 -112 -94 -109 -0 -0 -0 -0 -121 -79 -102 -95 -81 -44 -107 -103 -49 -20 -105 -140 -0 -0 -0 -0 -0 -0 -0 -0 -0 -0 -0 -0 -0 -0 -0 -0 -26
-0 -0 -6 -120 -0 -22 -73 -0 -91 -0 -0 -0 -189 -184 -140 -133 -108 -121 -110 -118 -127 -154 -165 -155 -0 -0 -0 -0 -0 -0 -0 -0 -0 -0 -0 -0 -0 -0 -0 -0 -0 -0 -0
-0 -0 -0 -128 -65 -43 -82 -0 -0 -0 -0 -185 -171 -224 -213 -178 -190 -168 -163 -173 -190 -203 -138 -0 -0 -0 -0 -0 -0 -0 -0 -0 -0 -0 -0 -0 -0 -0 -0 -0 -0 -0 -0
-0 -0 -0 -127 -100 -70 -75 -99 -122 -108 -134 -143 -181 -283 -255 -252 -269 -260 -0 -140 -217 -0 -0 -0 -0 -0 -0 -0 -0 -0 -0 -0 -0 -0 -0 -0 -0 -0 -2 -2 -1 -1 -1
-0 -0 -0 -124 -119 -96 -86 -111 -117 -116 -105 -142 -231 -327 -350 -0 -0 -0 -0 -0 -0 -0 -0 -0 -0 -0 -0 -0 -0 -0 -0 -0 -0 -0 -0 -0 -3 -3 -8 -13 -18 -11 -12
-73 -0 -0 -28 -149 -118 -129 -140 -132 -164 -181 -190 -260 -431 -0 -0 -0 -0 -0 -0 -0 -0 -0 -0 -0 -0 -0 -0 -0 -0 -0 -0 -0 -0 -2 -0 -9 -19 -23 -32 -24 -29 -22
-63 -86 -155 -63 -111 -148 -115 -139 -146 -188 -208 -246 -326 -369 -0 -0 -0 -0 -0 -0 -0 -0 -0 -0 -0 -0 -0 -0 -0 -0 -0 -0 -0 -0 -1 -4 -10 -6 -30 -23 -20 -11 -4
-76 -31 -24 -61 -60 -73 -125 -118 -129 -236 -222 -329 -32 -0 -0 -0 -0 -0 -0 -0 -0 -0 -0 -0 -0 -0 -0 -0 -1 -5 -0 -0 -0 -1 -1 -0 -0 -0 -0 -0 -0 -0 -2
-11 -32 -17 -11 -27 -31 -44 -67 -180 -239 -287 -357 -0 -0 -0 -0 -0 -0 -0 -0 -0 -0 -0 -0 -0 -1 -0 -0 -1 -7 -0 -0 -0 -0 -0 -0 -0 -0 -0 -0 -0 -5 -7
-108 -95 -110 -104 -67 -103 -157 -169 -159 -164 -202 -308 -0 -0 -0 -0 -0 -0 -0 -0 -0 -0 -0 -0 -5 -4 -2 -1 -0 -5 -1 -0 -0 -0 -0 -0 -5 -0 -0 -0 -2 -1 -6
-300 -285 -289 -263 -217 -200 -171 -135 -155 -191 -175 -0 -0 -0 -0 -0 -0 -0 -0 -0 -0 -0 -3 -4 -2 -3 -6 -5 -2 -1 -0 -0 -0 -0 -0 -0 -0 -1 -0 -0 -9 -11 -6
-418 -380 -381 -406 -391 -318 -280 -206 -137 -150 -219 -0 -0 -0 -0 -0 -0 -0 -0 -0 -0 -0 -4 -3 -1 -3 -12 -8 -1 -5 -1 -0 -0 -0 -0 -0 -0 -0 -0 -0 -0 -4 -11
-448 -0 -0 -0 -0 -0 -0 -383 -296 -303 -0 -0 -0 -0 -0 -0 -0 -0 -0 -0 -0 -1 -5 -1 -3 -1 -7 -5 -0 -2 -4 -1 -0 -0 -0 -0 -0 -0 -1 -0 -0 -13 -6
-0 -0 -0 -0 -0 -0 -0 -0 -0 -0 -0 -0 -0 -0 -0 -0 -0 -0 -0 -0 -4 -0 -7 -4 -6 -4 -3 -3 -1 -14 -2 -4 -6 -0 -0 -0 -0 -0 -0 -0 -0 -2 -1
Wind_Speed
15 13 14 14 14 14 14 15 15 16 16 15 15 16 16 17 17 18 18 19 20 20 20 20 21 21 21 21 22 22 22 22 22 22 21 18 14 14 15 18 20 19 19
14 13 14 15 16 17 16 16 16 16 15 15 15 16 16 16 17 18 18 19 19 20 21 21 21 21 22 22 22 22 23 23 23 23 24 21 9 8 11 16 18 20 20
16 14 14 16 16 16 16 16 16 16 15 15 15 15 16 16 17 17 18 19 19 20 21 21 22 22 23 23 24 24 24 24 25 25 27 27 18 4 12 17 19 21 22
18 17 16 16 16 15 16 15 15 14 14 14 14 14 15 15 16 17 18 19 20 21 21 22 22 23 23 24 24 25 25 26 27 28 28 25 32 5 9 18 22 24 25
19 18 18 17 15 14 14 13 13 12 12 13 13 13 14 15 16 17 18 19 20 21 21 22 22 23 23 24 24 25 25 26 28 30 26 24 18 9 14 19 23 24 26
18 15 16 15 15 15 14 13 12 12 12 12 12 13 14 15 16 17 18 19 20 21 21 22 22 23 23 24 25 24 25 27 30 30 33 29 20 11 16 20 22 25 27
16 15 14 14 13 13 12 12 12 11 11 12 12 13 14 15 15 16 17 19 20 21 22 22 23 24 25 25 25 25 25 26 27 29 32 36 26 15 15 18 21 25 26
14 14 14 14 13 12 11 11 11 11 11 12 12 13 13 13 14 15 16 17 19 20 22 22 23 25 25 25 25 24 24 25 28 29 31 32 25 17 17 20 23 25 26
15 14 14 14 12 11 11 11 11 11 12 12 12 13 13 13 13 14 15 17 19 20 22 23 24 25 26 26 25 22 22 23 27 31 28 25 22 19 20 22 24 27 29
14 15 15 14 13 13 12 11 11 11 12 12 13 12 12 12 13 13 14 16 17 18 20 21 22 23 25 24 25 23 24 26 28 25 24 26 19 20 23 26 28 29 31
15 15 15 15 14 13 13 12 11 12 12 12 13 13 13 11 12 12 14 14 15 16 17 18 20 21 23 26 26 27 27 25 24 27 33 32 25 26 27 30 32 33 36
14 14 15 15 14 14 13 13 13 12 12 12 12 13 12 12 14 15 13 11 14 15 17 21 23 25 27 30 37 38 34 33 33 38 37 35 28 31 33 34 36 36 37
13 12 14 13 14 15 13 13 13 12 11 12 13 14 17 17 16 17 20 20 20 25 22 32 33 35 39 40 39 38 39 39 37 37 37 42 44 43 42 41 42 42 43
13 12 13 13 13 14 14 13 13 12 12 11 12 13 15 13 18 20 21 24 25 28 32 34 37 41 42 41 41 39 40 41 40 42 41 44 45 47 48 47 47 46 47
13 13 14 14 13 11 14 12 12 12 11 11 12 14 17 18 19 21 23 24 28 31 33 36 40 41 44 41 41 41 40 40 40 39 38 39 43 45 47 47 47 46 45
13 14 14 14 12 9 9 11 10 11 11 10 12 16 17 19 21 23 25 28 29 32 36 40 41 43 42 40 41 43 42 39 39 38 37 39 42 43 42 42 42 42 43
11 12 13 13 11 9 7 7 8 6 8 10 13 16 19 22 24 27 28 29 31 34 38 41 42 42 39 42 43 40 38 37 37 38 39 38 36 35 37 38 38 40 40
8 10 10 10 10 8 6 5 5 8 10 12 14 15 18 19 23 28 30 30 32 35 36 40 41 41 42 43 43 40 39 40 39 37 36 37 35 35 34 37 38 38 38
8 10 8 7 7 6 4 5 7 11 14 15 16 18 21 24 26 29 29 31 35 36 38 40 40 39 44 43 40 38 40 36 37 35 33 34 34 35 34 37 40 41 40
11 8 6 4 2 4 5 8 10 13 16 18 20 23 25 28 29 30 32 34 35 36 38 39 38 40 41 41 40 37 36 35 31 33 34 37 36 34 35 36 38 38 39
7 7 6 4 4 8 8 8 14 16 17 20 21 24 28 29 30 31 31 33 34 37 37 36 37 39 39 38 37 38 33 28 29 36 39 32 33 33 36 34 35 36 38
14 11 13 13 13 15 15 17 19 18 18 18 20 24 26 27 28 29 31 32 34 36 35 36 35 36 36 36 36 35 33 29 28 37 30 32 35 38 30 31 39 38 34
14 14 15 16 17 17 16 16 17 18 18 19 22 22 24 25 27 26 29 31 33 34 34 33 32 33 34 33 32 30 32 30 42 29 35 31 37 35 35 39 38 32 30
17 16 16 18 19 20 21 19 18 20 22 21 21 22 25 24 25 26 29 31 32 33 32 31 31 30 30 30 29 25 27 28 36 39 30 36 31 37 40 36 32 29 26
17 18 20 21 21 21 22 21 20 21 22 20 22 25 24 23 22 25 28 31 30 32 31 31 32 29 25 25 28 30 28 27 25 21 39 39 36 27 13 41 29 24 23
18 20 20 21 21 21 21 21 21 22 22 23 26 26 28 27 29 28 29 30 28 30 30 30 27 26 26 26 26 28 27 29 30 29 30 41 42 35 34 35 37 34 31
Wind_Direction
51 55 55 55 55 58 61 62 63 63 59 50 42 37 31 24 21 18 16 15 15 13 12 11 7 1 360 359 357 355 353 349 346 343 347 2 18 24 20 6 351 357 352
64 59 62 66 70 75 74 71 71 69 62 53 45 39 29 23 20 17 13 11 9 8 9 8 8 8 4 359 356 353 348 344 339 335 330 342 18 25 19 8 356 341 339
72 70 69 72 71 74 75 75 75 74 64 56 47 43 39 33 27 18 13 5 1 1 0 360 358 356 353 349 346 344 343 340 337 332 323 319 338 323 350 347 344 338 330
82 85 79 79 75 73 77 77 74 66 58 50 42 36 31 22 11 8 360 358 357 358 358 357 356 354 352 349 346 342 339 336 332 326 325 328 316 348 354 339 333 328 322
92 86 86 86 77 71 69 66 63 55 47 42 36 31 19 11 7 5 3 2 2 1 360 358 357 356 354 353 351 348 344 340 332 324 331 338 341 351 342 335 331 328 322
89 72 82 81 80 78 76 70 59 55 50 38 26 19 14 12 9 6 7 9 5 2 1 0 1 359 358 355 353 353 350 343 333 330 317 332 335 342 335 330 329 327 322
84 69 78 78 76 70 69 61 62 53 38 28 25 18 15 14 17 16 15 8 6 5 2 360 357 355 353 352 351 351 349 346 342 337 327 315 329 329 327 327 326 325 323
70 73 83 84 83 75 62 58 51 39 37 25 23 22 24 33 36 33 31 19 10 6 3 1 360 356 354 352 349 348 345 343 339 335 328 322 324 325 322 321 320 319 319
69 70 83 88 82 69 63 66 58 45 32 30 31 34 43 47 40 37 27 16 10 5 1 358 356 354 351 349 346 343 341 339 336 332 331 328 323 318 318 317 316 314 312
81 76 89 90 88 86 83 70 58 49 35 37 36 46 61 49 46 43 31 25 17 12 5 1 357 354 352 349 345 342 335 331 331 332 328 323 324 319 315 312 310 308 307
96 81 94 98 92 97 85 78 66 58 57 54 50 61 51 55 53 41 32 26 19 13 9 4 359 355 350 347 343 341 338 333 329 328 325 325 323 320 317 313 310 307 304
99 87 101 106 97 116 88 83 86 77 75 72 71 52 45 42 25 19 20 20 14 7 359 356 352 347 345 342 335 333 335 332 327 323 321 321 324 320 316 312 308 306 304
88 83 98 83 92 109 83 90 96 85 85 58 36 22 15 17 22 11 4 5 360 350 351 341 339 338 332 332 332 332 329 326 324 323 320 313 310 311 311 310 307 303 301
74 83 97 84 96 40 89 88 90 73 62 57 47 37 19 23 5 1 357 349 348 344 338 338 335 330 329 329 329 330 329 326 323 320 317 314 311 309 307 307 305 303 300
76 80 98 93 106 70 52 66 59 61 60 52 42 17 1 356 353 350 346 344 340 338 337 336 334 331 328 329 329 328 330 328 325 322 321 319 315 311 309 307 305 303 301
91 94 97 96 97 82 66 41 44 36 37 31 15 1 357 348 345 342 340 337 337 337 333 332 332 331 329 328 329 329 328 329 327 325 324 322 317 314 312 309 307 305 302
95 102 100 97 96 84 79 45 36 40 10 2 352 347 344 341 339 335 334 336 338 338 336 332 331 329 332 329 328 332 332 331 330 329 327 324 322 323 322 320 318 312 308
100 107 104 105 103 92 81 50 19 358 350 349 347 345 341 340 338 333 333 334 335 336 337 335 334 331 329 328 329 332 333 331 331 330 330 327 327 328 327 322 318 316 312
128 118 112 104 98 99 62 20 352 350 340 340 339 341 341 337 337 337 334 334 334 335 336 338 334 334 328 329 331 334 334 337 335 334 334 334 332 330 329 323 318 314 311
141 123 110 103 52 60 25 356 351 344 339 340 339 336 337 334 333 333 332 333 335 335 335 338 338 333 331 330 331 334 337 338 340 340 337 333 334 336 334 328 320 317 314
49 31 79 65 52 14 2 344 341 334 334 333 334 335 333 333 333 332 333 334 336 336 336 340 339 335 334 337 335 335 341 344 343 336 333 346 344 344 338 335 328 324 318
40 16 356 6 3 355 351 345 338 333 333 331 337 338 337 336 337 336 336 336 337 337 339 339 340 338 338 342 340 340 342 346 345 338 350 349 344 338 345 340 320 321 328
4 355 356 356 357 358 353 348 345 343 339 336 338 340 343 342 341 342 342 341 340 340 338 339 341 342 341 343 346 346 343 343 325 347 341 347 345 345 341 324 326 338 339
357 358 2 2 358 355 348 344 341 343 340 342 342 344 341 342 342 342 342 342 341 342 342 343 344 343 344 344 347 350 346 345 336 319 345 339 349 342 330 338 341 343 346
18 13 10 6 2 356 353 353 352 346 349 351 347 343 344 344 343 342 345 343 344 342 345 343 344 346 350 351 347 342 344 348 348 352 305 331 343 357 353 325 349 352 348
16 12 6 1 357 358 360 358 355 354 352 349 346 345 346 347 345 347 346 347 347 346 345 347 350 350 350 349 348 344 343 344 342 340 342 308 317 345 347 345 336 342 349